Location: Hodgeman County Ambulance
(38.0844°N, 99.8949°W)
Time: 15:15:44
(UTC+00:00)

PSLV R/B - Pass Details

Date: 27 October 2020
Orbit: 567 x 599 km, 98.2° (Epoch: 03 December)

Event Time Altitude Azimuth Distance (km) Brightness Sun altitude
Rises 12:06:50 0° 170° (S) 2,817 7.7 -11.2°
Reaches altitude 10° 12:08:59 10° 172° (S) 1,924 6.8 -10.8°
Maximum altitude 12:13:10 75° 258° (WSW) 624 3.9 -10.0°
Drops below altitude 10° 12:17:23 10° 344° (NNW) 1,946 6.4 -9.2°
Sets 12:19:35 0° 346° (NNW) 2,854 7.2 -8.7°
